User: anonymous   Login
Location: Innerarity Island Observatory
(30.3139°N, 87.4867°W)
Time: 01:43:27
(UTC-05:00)
Language:

JAS-2 - Orbit

View from above orbital plane
View from above orbital plane
View from above satellite
View from above satellite

Ground track
Ground track

The orbit data is extracted from the following two-line orbital elements,

1 24278U 96046B   16271.80616885 -.00000057  00000-0 -18657-4 0  9992
2 24278  98.5819 183.5840 0349463 297.0309  59.5561 13.53071030993390
Epoch (UTC): 27 September 2016 19:20:52
Eccentricity: 0.0349463
inclination: 98.5819°
perigee height: 801 km
apogee height: 1321 km
right ascension of ascending node: 183.5840°
argument of perigee: 297.0309°
revolutions per day: 13.53071030
mean anomaly at epoch: 59.5561°
orbit number at epoch: 99339

The dashed part of the orbit path shows where the satellite is in the earth's shadow,  

DLR